Find Starlink 3625

NORAD ID: 51777 Int'l Des: 2022-017 Owner: SPXS Country: US Constellation: starlink operational
LEOCIRCULAR

Live Position

Loading 3D Globe...

About Starlink 3625

Description loading...

Upcoming Passes

Passes for default location (London). Set your location on the main map for personalized predictions.

Altitude History

Loading altitude history...

Two-Line Element Set

1 51777U 22017K 26105.88920677 .00000638 00000-0 58182-4 0 9995
2 51777 53.2177 172.0971 0001225 82.5821 277.5310 15.08846612228218
Epoch: Apr 15, 2026 • Age: 14 hours

Current Status

Altitude 539.6 km
Velocity 7.60 km/s
Sub-Earth Point 16.14°N, 161.13°E
Launch Date Feb 25, 2022
Age 4.1 years
Type internet

Technical Details

Classification Payload
Mass 297.00 kg
Dry Mass 275.00 kg
Total Mass 297.00 kg
Length 0.20 m
Diameter 2.80 m
Span 9.00 m
Shape Box + pan
Manufacturer SPXS
Bus Type Starlink
Phase Status In Orbit
Owner/State SPXS/US

Most Searched